Date String (YYYY-MM-DD hh:mm:ss) UTC,Instrument flags,Ambient pressure (hPa),Sample flow (lpm),Bypass flow (lpm),Sample temperature (°C),Ambient temperature (°C),ASC tube jacket temperature (°C),LED temperature (°C),Box temperature (°C),Sample RH (%),Span deviation,Mass concentration (μg/m³),Mass concentration (μg/m³),Mass concentration (μg/m³)
DateTimeUTC,F1_M11,P_M11,Q1_M11,Q2_M11,T1_M11,T2_M11,T3_M11,T4_M11,T5_M11,U1_M11,ZSPAN_M11,X0_M11,X2_M11,X1_M11
2022-02-16 09:00:00,,0816.5,5.00,0.00,25.1,24.3,00.0,34.1,26.8,12.4,0000.0,0014.11,0003.80,0002.60
2022-02-16 09:01:00,,0816.5,5.00,0.00,25.1,24.3,00.0,34.1,26.8,12.4,0000.0,0013.87,0003.81,0002.60
2022-02-16 09:02:00,,0816.5,4.99,0.00,25.1,24.3,00.0,34.1,26.9,12.4,0000.0,0013.47,0003.81,0002.60
2022-02-16 09:03:00,,0816.5,5.01,0.00,25.1,24.3,00.0,34.1,26.9,12.4,0000.0,0013.14,0003.80,0002.59
2022-02-16 09:04:00,,0816.5,5.00,0.00,25.1,24.3,00.0,34.1,26.9,12.4,0000.0,0013.69,0003.81,0002.60
2022-02-16 09:05:00,,0816.4,4.99,0.00,25.1,24.3,00.0,34.1,26.9,12.4,0000.0,0013.30,0003.80,0002.67
2022-02-16 09:06:00,,0816.4,5.01,0.00,25.1,24.3,00.0,34.1,26.9,12.4,0000.0,0014.10,0003.81,0002.73
2022-02-16 09:07:00,,0816.4,5.00,0.00,25.1,24.3,00.0,34.1,26.9,12.4,0000.0,0014.26,0003.85,0002.77
2022-02-16 09:08:00,,0816.4,4.99,0.00,25.1,24.3,00.0,34.1,26.9,12.4,0000.0,0013.60,0003.84,0002.82
2022-02-16 09:09:00,,0816.4,5.02,0.00,25.1,24.3,00.0,34.1,26.9,12.4,0000.0,0013.01,0003.86,0002.84
2022-02-16 09:10:00,,0816.4,4.98,0.00,25.1,24.3,00.0,34.1,26.9,12.4,0000.0,0011.49,0003.82,0002.85
2022-02-16 09:11:00,,0816.4,4.99,0.00,25.1,24.3,00.0,34.1,26.9,12.4,0000.0,0011.45,0003.83,0002.86
2022-02-16 09:12:00,,0816.5,5.02,0.00,25.1,24.3,00.0,34.1,26.9,12.4,0000.0,0012.98,0003.85,0002.87
2022-02-16 09:13:00,,0816.4,5.00,0.00,25.1,24.3,00.0,34.1,26.9,12.4,0000.0,0014.38,0003.86,0002.87
2022-02-16 09:14:00,,0816.5,5.00,0.00,25.1,24.3,00.0,34.1,26.9,12.4,0000.0,0014.50,0003.84,0002.88
2022-02-16 09:15:00,,0816.5,5.01,0.00,25.1,24.3,00.0,34.1,26.9,12.4,0000.0,0013.63,0003.78,0002.87
2022-02-16 09:16:00,,0816.5,4.99,0.00,25.1,24.3,00.0,34.1,26.9,12.4,0000.0,0013.38,0003.74,0002.83
2022-02-16 09:17:00,,0816.7,5.01,0.00,25.1,24.3,00.0,34.1,26.9,12.3,0000.0,0012.76,0003.73,0002.75
2022-02-16 09:18:00,,0816.7,4.98,0.00,25.1,24.3,00.0,34.1,26.9,12.4,0000.0,0012.08,0003.71,0002.70
2022-02-16 09:19:00,,0816.4,5.00,0.00,25.1,24.3,00.0,34.1,26.9,12.4,0000.0,0011.77,0003.66,0002.66
2022-02-16 09:20:00,,0816.4,5.00,0.00,25.1,24.3,00.0,34.1,26.8,12.4,0000.0,0011.38,0003.65,0002.64
2022-02-16 09:21:00,,0816.4,4.99,0.00,25.1,24.3,00.0,34.1,26.8,12.4,0000.0,0012.36,0003.71,0002.64
2022-02-16 09:22:00,,0816.4,5.00,0.00,25.0,24.3,00.0,34.1,26.8,12.4,0000.0,0013.08,0003.71,0002.63
2022-02-16 09:23:00,,0816.3,5.01,0.00,25.0,24.2,00.0,34.0,26.8,12.4,0000.0,0011.74,0003.69,0002.64
2022-02-16 09:24:00,,0816.3,4.99,0.00,25.0,24.2,00.0,34.0,26.8,12.4,0000.0,0011.71,0003.69,0002.61
2022-02-16 09:25:00,,0816.4,4.99,0.00,25.0,24.2,00.0,34.0,26.8,12.3,0000.0,0011.76,0003.70,0002.60
2022-02-16 09:26:00,,0816.4,5.01,0.00,25.0,24.2,00.0,34.0,26.8,12.4,0000.0,0011.95,0003.76,0002.60
2022-02-16 09:27:00,,0816.4,5.01,0.00,25.0,24.2,00.0,34.0,26.8,12.4,0000.0,0012.22,0003.77,0002.60
2022-02-16 09:28:00,,0816.4,5.00,0.00,25.0,24.2,00.0,34.0,26.8,12.4,0000.0,0012.22,0003.73,0002.62
2022-02-16 09:29:00,,0816.4,5.01,0.00,25.0,24.2,00.0,34.0,26.8,12.4,0000.0,0012.06,0003.72,0002.61
2022-02-16 09:30:00,,0816.4,5.00,0.00,25.0,24.1,00.0,34.0,26.7,12.4,0000.0,0012.16,0003.76,0002.61
2022-02-16 09:31:00,,0816.4,4.98,0.00,24.9,24.1,00.0,34.0,26.7,12.4,0000.0,0012.72,0003.77,0002.62
2022-02-16 09:32:00,,0816.4,5.00,0.00,24.9,24.1,00.0,34.0,26.7,12.4,0000.0,0011.82,0003.70,0002.61
2022-02-16 09:33:00,,0816.4,5.01,0.00,24.9,24.1,00.0,34.0,26.7,12.4,0000.0,0010.80,0003.68,0002.62
2022-02-16 09:34:00,,0816.4,4.98,0.00,24.9,24.1,00.0,34.0,26.7,12.5,0000.0,0010.63,0003.69,0002.61
2022-02-16 09:35:00,,0816.4,5.01,0.00,24.9,24.1,00.0,34.0,26.6,12.5,0000.0,0009.36,0003.68,0002.62
2022-02-16 09:36:00,,0816.4,4.99,0.00,24.9,24.0,00.0,33.9,26.6,12.5,0000.0,0009.37,0003.72,0002.64
2022-02-16 09:37:00,,0816.4,5.01,0.00,24.8,24.0,00.0,33.9,26.6,12.5,0000.0,0009.31,0003.70,0002.64
2022-02-16 09:38:00,,0816.4,4.98,0.00,24.8,24.0,00.0,33.9,26.6,12.5,0000.0,0009.28,0003.68,0002.64
2022-02-16 09:39:00,,0816.3,5.01,0.00,24.8,24.0,00.0,33.9,26.5,12.5,0000.0,0009.71,0003.71,0002.63
2022-02-16 09:40:00,,0816.3,5.00,0.00,24.8,24.0,00.0,33.9,26.6,12.5,0000.0,0009.70,0003.70,0002.64
2022-02-16 09:41:00,,0816.4,4.99,0.00,24.8,24.0,00.0,33.9,26.6,12.5,0000.0,0009.99,0003.70,0002.64
2022-02-16 09:42:00,,0816.3,5.01,0.00,24.8,24.0,00.0,33.9,26.6,12.5,0000.0,0010.41,0003.65,0002.64
2022-02-16 09:43:00,,0816.3,4.99,0.00,24.8,24.0,00.0,33.9,26.6,12.5,0000.0,0010.83,0003.67,0002.65
2022-02-16 09:44:00,,0816.4,5.02,0.00,24.8,23.9,00.0,33.8,26.5,12.6,0000.0,0011.82,0003.69,0002.65
2022-02-16 09:45:00,,0816.3,4.99,0.00,24.7,23.9,00.0,33.8,26.5,12.6,0000.0,0012.68,0003.67,0002.65
2022-02-16 09:46:00,,0816.2,5.01,0.00,24.7,23.8,00.0,33.8,26.4,12.7,0000.0,0013.03,0003.67,0002.65
2022-02-16 09:47:00,,0816.2,5.01,0.00,24.7,23.8,00.0,33.8,26.3,12.7,0000.0,0012.93,0003.63,0002.64
2022-02-16 09:48:00,,0816.1,4.99,0.00,24.6,23.8,00.0,33.8,26.4,12.7,0000.0,0013.39,0003.61,0002.64
2022-02-16 09:49:00,,0816.1,4.99,0.00,24.6,23.8,00.0,33.8,26.3,12.7,0000.0,0013.56,0003.64,0002.64
2022-02-16 09:50:00,,0816.2,5.01,0.00,24.6,23.8,00.0,33.7,26.4,12.7,0000.0,0012.96,0003.66,0002.62
2022-02-16 09:51:00,,0816.2,4.99,0.00,24.6,23.8,00.0,33.7,26.4,12.7,0000.0,0013.45,0003.70,0002.62
2022-02-16 09:52:00,,0816.2,5.00,0.00,24.6,23.8,00.0,33.7,26.5,12.7,0000.0,0013.91,0003.72,0002.64
2022-02-16 09:53:00,,0816.2,5.01,0.00,24.7,23.8,00.0,33.7,26.5,12.7,0000.0,0013.02,0003.69,0002.63
2022-02-16 09:54:00,,0816.2,5.01,0.00,24.7,23.9,00.0,33.7,26.5,12.7,0000.0,0012.36,0003.69,0002.61
2022-02-16 09:55:00,,0816.2,4.99,0.00,24.7,23.9,00.0,33.7,26.5,12.7,0000.0,0011.80,0003.67,0002.61
2022-02-16 09:56:00,,0816.2,5.01,0.00,24.7,23.9,00.0,33.7,26.5,12.7,0000.0,0010.69,0003.70,0002.62
2022-02-16 09:57:00,,0816.3,4.99,0.00,24.7,23.9,00.0,33.7,26.5,12.7,0000.0,0010.26,0003.78,0002.64
2022-02-16 09:58:00,,0816.3,4.99,0.00,24.7,23.9,00.0,33.7,26.5,12.7,0000.0,0010.15,0003.77,0002.64
2022-02-16 09:59:00,,0816.3,5.00,0.00,24.7,23.9,00.0,33.7,26.5,12.7,0000.0,0009.30,0003.75,0002.63
